Regional Weather Roundup
Issued by NWS

Home | Current Version | Previous Version | Graphics & Text | Print | Product List | Glossary On
Versions: 1 2 3 4 5 6 7 8 9 10 11 12 13 14 15 16 17 18 19 20 21 22 23 24 25 26 27 28 29 30 31 32 33 34 35 36 37 38 39 40 41 42 43 44 45 46 47 48 49 50
000
ASUS43 KBIS 282302
RWRND

NORTH DAKOTA REGIONAL WEATHER ROUNDUP
NATIONAL WEATHER SERVICE BISMARCK ND
600 PM CDT WED JUN 28 2017

NOTE: "FAIR" INDICATES FEW OR NO CLOUDS BELOW 12,000 FEET WITH NO
SIGNIFICANT WEATHER AND/OR OBSTRUCTIONS TO VISIBILITY.


NDZ001>003-009>011-017-290000-
NORTHWEST NORTH DAKOTA

CITY           SKY/WX    TMP DP  RH WIND       PRES   REMARKS
WILLISTON      LGT RAIN  70  48  45 NW16G29   29.75R
MINOT          SUNNY     81  44  27 NW17G26   29.68S
MINOT AFB      SUNNY     80  44  27 N13       29.67S
$$

NDZ018>021-031>035-040>046-290000-
SOUTHWEST NORTH DAKOTA

CITY           SKY/WX    TMP DP  RH WIND       PRES   REMARKS
BISMARCK       MOSUNNY   82  44  26 N13       29.68F
DICKINSON      SUNNY     82  32  16 N6        29.72R
GARRISON         N/A     79  44  28 N10G22    29.69S
HETTINGER ARPT MOSUNNY   83  29  14 E6G17     29.74S
$$

NDZ004>008-012>016-024-026-027-054-290000-
NORTHEAST NORTH DAKOTA

CITY           SKY/WX    TMP DP  RH WIND       PRES   REMARKS
GRAND FORKS    CLOUDY    67  64  90 N8        29.61R
GRND FRKS AFB  CLOUDY    67  63  89 N6        29.62R
DEVILS LAKE    SUNNY     75  54  47 NW14      29.65R
$$

NDZ022-023-025-028>030-036>039-047>053-290000-
SOUTHEAST NORTH DAKOTA

CITY           SKY/WX    TMP DP  RH WIND       PRES   REMARKS
FARGO          PTSUNNY   71  63  75 NW16      29.59R
JAMESTOWN      SUNNY     77  53  43 NW16      29.64R
$$





USA.gov is the U.S. government's official web portal to all federal, state and local government web resources and services.